Find Iridium Next SV121

NORAD ID: 42812 Int'l Des: 2017-039 Owner: IRIDS Country: US Constellation: Iridium NEXT operational
LEOCIRCULARPOLAR

リアルタイム位置

3D地球を読み込み中...

Iridium Next SV121について

説明を読み込み中...

次回通過

Passes for default location (London). Set your location on the main map for personalized predictions.

高度履歴

Loading altitude history...

軌道要素

1 42812U 17039K 26136.14392824 .00000222 00000-0 72251-4 0 9995
2 42812 86.3992 7.0664 0002121 85.2789 274.8649 14.34216146465236
Epoch: May 16, 2026 • Age: 12 hours

現在のステータス

高度 784.5 km
速度 7.47 km/s
衛星直下点 50.28°N, 94.31°W
打ち上げ日 Jun 25, 2017
運用期間 8.8 years
タイプ communications

技術仕様

分類 Payload
質量 860.00 kg
乾燥質量 700.00 kg
総質量 860.00 kg
長さ 3.10 m
直径 1.50 m
スパン 9.40 m
形状 Half Hex Prism+2 pan
製造者 OATKGA
バスタイプ EliteBus
フェーズステータス In Orbit
所有者/国 IRIDS/US

Most Searched